Location: Greenwich
(51.4790°N, 0.0090°E)
Time: 00:12:23
(UTC+01:00)

Transit 4A - Pass Details

Date: 30 April 2024
Orbit: 871 x 971 km, 66.8° (Epoch: 18 May)

Event Time Altitude Azimuth Distance (km) Brightness Sun altitude
Rises 21:14:29 0° 315° (NW) 3,471 13.2 -7.8°
Reaches altitude 10° 21:17:27 10° 301° (WNW) 2,531 11.9 -8.1°
Maximum altitude 21:21:50 23° 252° (WSW) 1,805 9.9 -8.7°
Drops below altitude 10° 21:26:16 10° 203° (SSW) 2,545 10.0 -9.2°
Sets 21:29:16 0° 189° (S) 3,494 10.6 -9.6°
